Location: Cheching
(60.0667°N, 164.2167°W)
Time: 07:41:17
(UTC+00:00)

XW-2D - Pass Details

Date: 21 January 2021
Orbit: 505 x 525 km, 97.5° (Epoch: 09 March)

Event Time Altitude Azimuth Distance (km) Brightness Sun altitude
Rises 04:14:58 0° 182° (S) 2,620 ? -10.7°
Reaches altitude 10° 04:17:08 10° 190° (S) 1,742 ? -11.0°
Maximum altitude 04:20:43 41° 262° (W) 761 ? -11.4°
Drops below altitude 10° 04:24:20 10° 334° (NNW) 1,767 ? -11.8°
Sets 04:26:33 0° 341° (NNW) 2,664 ? -12.1°
